Regional Weather Roundup
Issued by NWS

Home | Current Version | Previous Version | Graphics & Text | Print | Product List | Glossary On
Versions: 1 2 3 4 5 6 7 8 9 10 11 12 13 14 15 16 17 18 19 20 21 22 23 24 25 26 27 28
000
ASUS45 KBOI 192210
RWRID

IDAHO REGIONAL WEATHER ROUNDUP
NATIONAL WEATHER SERVICE BOISE ID
400 PM MDT WED JUL 19 2017

NOTE: "FAIR" INDICATES FEW OR NO CLOUDS BELOW 12000 FEET
WITH NO SIGNIFICANT WEATHER AND/OR OBSTRUCTIONS TO VISIBILITY

IDZ012-014-192300-
SOUTHWEST IDAHO


CITY           SKY/WX    TMP DP  RH WIND       PRES   REMARKS
BOISE          SUNNY     94  37  13 NW10      29.96F
CALDWELL       SUNNY     94  46  19 NE5       29.93F HX  90
$$

IDZ016-017-192300-
SOUTHCENTRAL IDAHO


CITY           SKY/WX    TMP DP  RH WIND       PRES   REMARKS
BURLEY         SUNNY     88  44  21 SW5       30.03F
JEROME         SUNNY     90  45  21 W7        30.04F
TWIN FALLS     SUNNY     89  40  17 NW10G17   30.05F
$$

IDZ019>023-192300-
SOUTHEAST IDAHO


CITY           SKY/WX    TMP DP  RH WIND       PRES   REMARKS
IDAHO FALLS    SUNNY     91  33  12 SW14      30.08F
POCATELLO      SUNNY     92  35  13 NW8       30.06F
REXBURG        SUNNY     90  31  12 S10       30.09F
$$

IDZ006-010-011-018-031-032-192300-
CENTRAL IDAHO MOUNTAINS


CITY           SKY/WX    TMP DP  RH WIND       PRES   REMARKS
MCCALL         SUNNY     84  32  15 S12G18    30.09F
HAILEY         SUNNY     88  36  15 S13       30.14F
STANLEY          N/A     85  22  10 VRB7      30.18F
SALMON         NOT AVBL
CHALLIS        SUNNY     93  14   5 VRB6G16   30.01F
$$

IDZ002-004-006-007-026-192300-
NORTHERN IDAHO


CITY           SKY/WX    TMP DP  RH WIND       PRES   REMARKS
LEWISTON       SUNNY     92  44  19 VRB6      29.91F
LOWELL           N/A     96  46  18 S7        29.85F HX  92
COEUR D`ALENE  SUNNY     87  46  24 NW6       29.98F
MULLAN PASS    SUNNY     73  35  25 CALM      30.19F
$$




USA.gov is the U.S. government's official web portal to all federal, state and local government web resources and services.